Long Beach Weather Center

Moon Phase Calendar



Online Cameras

 


      

Current Conditions in Long Beach
10/21/2020 8:04:28 PM

64°F
Feels Like 68
Fog
Humidity
100%
Pressure
30.24"
Wind
3.4 mph (N)
Dew Point
64°F
UV Index
3/10 (Moderate)
Visibility
0 mi

Hourly Forecast

Date & Time Wed, Oct 21
8:00 PM
Wed, Oct 21
9:00 PM
Wed, Oct 21
10:00 PM
Wed, Oct 21
11:00 PM
Thu, Oct 22
12:00 AM
Thu, Oct 22
1:00 AM
Thu, Oct 22
2:00 AM
Thu, Oct 22
3:00 AM
Thu, Oct 22
4:00 AM
Thu, Oct 22
5:00 AM
Thu, Oct 22
6:00 AM
Thu, Oct 22
7:00 AM
Thu, Oct 22
8:00 AM
Thu, Oct 22
9:00 AM
Thu, Oct 22
10:00 AM
Thu, Oct 22
11:00 AM
Thu, Oct 22
12:00 PM
Thu, Oct 22
1:00 PM
Thu, Oct 22
2:00 PM
Thu, Oct 22
3:00 PM
Thu, Oct 22
4:00 PM
Thu, Oct 22
5:00 PM
Thu, Oct 22
6:00 PM
Thu, Oct 22
7:00 PM
Thu, Oct 22
8:00 PM
Thu, Oct 22
9:00 PM
Thu, Oct 22
10:00 PM
Thu, Oct 22
11:00 PM
Fri, Oct 23
12:00 AM
Fri, Oct 23
1:00 AM
Fri, Oct 23
2:00 AM
Fri, Oct 23
3:00 AM
Fri, Oct 23
4:00 AM
Fri, Oct 23
5:00 AM
Fri, Oct 23
6:00 AM
Fri, Oct 23
7:00 AM
Fri, Oct 23
8:00 AM
Fri, Oct 23
9:00 AM
Fri, Oct 23
10:00 AM
Fri, Oct 23
11:00 AM
Fri, Oct 23
12:00 PM
Fri, Oct 23
1:00 PM
Fri, Oct 23
2:00 PM
Fri, Oct 23
3:00 PM
Fri, Oct 23
4:00 PM
Fri, Oct 23
5:00 PM
Fri, Oct 23
6:00 PM
Fri, Oct 23
7:00 PM
Condition
Clouds

Clouds

Clouds

Clear

Clear

Clear

Clear

Clear

Clear

Clear

Clear

Clear

Clear

Clouds

Clear

Clear

Clear

Clear

Clear

Clear

Clear

Clear

Clear

Clear

Clear

Clear

Clear

Clear

Clear

Clear

Clear

Clear

Clear

Clear

Clear

Clear

Clouds

Clouds

Clouds

Clouds

Clouds

Clouds

Clouds

Clouds

Clouds

Clouds

Clouds

Clouds
Temperature 64°F66°F66°F66°F66°F66°F66°F66°F65°F65°F65°F65°F65°F65°F66°F67°F68°F69°F70°F71°F71°F70°F68°F68°F67°F67°F66°F66°F66°F65°F65°F65°F65°F64°F64°F64°F64°F64°F64°F64°F64°F64°F64°F64°F64°F63°F63°F63°F
Feels Like 61°F63°F64°F64°F64°F65°F65°F65°F65°F66°F66°F66°F67°F67°F68°F68°F70°F71°F73°F72°F72°F71°F69°F68°F67°F67°F67°F67°F67°F67°F67°F67°F66°F65°F64°F63°F63°F62°F62°F62°F62°F62°F62°F61°F61°F60°F60°F60°F
Cloudiness 90%46%19%6%1%0%0%0%0%0%0%0%2%11%5%4%3%2%2%0%0%0%0%0%0%0%0%0%1%1%1%0%0%0%0%2%16%100%100%100%100%100%100%97%88%89%72%62%
Visibility 6 mi6 mi6 mi6 mi6 mi6 mi6 mi6 mi6 mi6 mi6 mi6 mi6 mi6 mi6 mi6 mi6 mi6 mi6 mi6 mi6 mi6 mi6 mi6 mi6 mi6 mi6 mi6 mi6 mi6 mi6 mi6 mi6 mi6 mi6 mi6 mi6 mi6 mi6 mi6 mi6 mi6 mi6 mi6 mi6 mi6 mi6 mi6 mi
Precipitation 0%0%0%0%0%0%0%0%0%0%0%0%0%0%0%0%0%0%0%0%0%0%0%0%0%0%0%0%0%0%0%0%0%0%0%0%0%0%0%0%0%0%0%0%0%0%0%0%
Humidity 100%93%90%88%89%90%91%92%93%93%94%94%93%89%85%80%78%76%73%71%72%74%77%80%82%83%85%86%87%88%89%89%90%91%92%94%94%92%91%91%91%90%90%89%88%89%90%90%
Dew Point 64°F64°F63°F63°F63°F63°F63°F63°F63°F63°F63°F63°F63°F62°F62°F61°F61°F61°F61°F61°F61°F61°F61°F61°F62°F62°F62°F62°F62°F62°F62°F62°F62°F62°F62°F62°F62°F62°F61°F61°F61°F61°F61°F61°F60°F60°F60°F60°F
Pressure 30.24"30.24"30.24"30.21"30.21"30.21"30.21"30.21"30.18"30.21"30.21"30.24"30.24"30.24"30.24"30.24"30.24"30.21"30.21"30.21"30.21"30.21"30.21"30.24"30.24"30.27"30.27"30.27"30.24"30.21"30.21"30.21"30.21"30.21"30.21"30.21"30.24"30.24"30.24"30.24"30.21"30.18"30.18"30.15"30.12"30.09"30.09"30.09"
Wind Speed 14.5 mph13.8 mph12.5 mph11.2 mph10.7 mph9.8 mph8.9 mph8.7 mph8 mph6.9 mph5.7 mph4.8 mph4.6 mph4.7 mph4.4 mph4.7 mph3.6 mph2.4 mph1.7 mph3.2 mph4.2 mph4.8 mph5.2 mph5.6 mph6.6 mph6 mph5.3 mph4.5 mph3.8 mph3.2 mph2.9 mph3.5 mph4.7 mph6 mph6.7 mph7.9 mph8.8 mph9.2 mph9.4 mph8.8 mph8.8 mph9.2 mph9.8 mph10.9 mph11.7 mph11.7 mph11.4 mph10.7 mph
Wind
Direction
196°
SSW
201°
SSW
207°
SSW
211°
SSW
214°
SW
224°
SW
237°
WSW
249°
WSW
263°
W
273°
W
275°
W
282°
WNW
311°
NW
338°
NNW
358°
N

N
23°
NNE
49°
NE
119°
ESE
158°
SSE
163°
SSE
161°
SSE
156°
SSE
151°
SSE
148°
SSE
151°
SSE
157°
SSE
162°
SSE
167°
SSE
174°
S
169°
S
142°
SE
121°
ESE
118°
ESE
112°
ESE
109°
ESE
111°
ESE
114°
ESE
114°
ESE
117°
ESE
119°
ESE
122°
ESE
123°
ESE
124°
SE
127°
SE
129°
SE
132°
SE
140°
SE

Daily Forecast

Date High Low Precip. Humidity
Today
Oct 21

Clouds
68 °F
63 °F
2%
81%
Thursday
Oct 22

Clear
70 °F
65 °F
0%
80%
Friday
Oct 23

Clouds
65 °F
63 °F
0%
91%
Saturday
Oct 24

Rain
66 °F
58 °F
26%
86%
Sunday
Oct 25

Clouds
57 °F
49 °F
0%
59%
Monday
Oct 26

Rain
65 °F
57 °F
100%
97%
Tuesday
Oct 27

Rain
68 °F
63 °F
100%
85%
Wednesday
Oct 28

Rain
61 °F
55 °F
100%
64%
Thursday
Oct 29

Clear
59 °F
53 °F
0%
55%
Friday
Oct 30

Rain
57 °F
53 °F
62%
77%
Saturday
Oct 31

Clear
51 °F
46 °F
0%
58%
Sunday
Nov 1

Clouds
56 °F
45 °F
0%
57%
Monday
Nov 2

Clouds
49 °F
41 °F
0%
56%
Tuesday
Nov 3

Clouds
58 °F
49 °F
0%
65%
Wednesday
Nov 4

Clouds
56 °F
39 °F
0%
66%
Thursday
Nov 5

Rain
45 °F
38 °F
31%
69%


Temperature 8-14 Day Outlook



Precipitation 8-14 Day Outlook




Quick Links
Long Beach News
Long Beach Photos
Long Beach Videos




About Us
Contact Us
Site Map
Search Site
Advertise With Us
   
LongBeach.USCoast.info
THE LONG BEACH WEBSITE

Copyright 2020, Coastal Town
Privacy    |    Legal